Location: Cosy Dell
(34.2789°N, 117.4537°W)
Time: 10:52:46
(UTC+00:00)

BREEZE-M R/B - Pass Details

Date: 14 July 2020
Orbit: 311 x 4532 km, 49.7° (Epoch: 08 August)

Event Time Altitude Azimuth Distance (km) Brightness Sun altitude
Rises 04:36:20 0° 308° (NW) 6,558 10.1 -16.7°
Reaches altitude 10° 04:41:40 10° 309° (NW) 4,815 8.9 -17.5°
Maximum altitude 04:53:11 88° 222° (SW) 1,135 4.3 -19.3°
Enters shadow 04:55:48 35° 133° (SE) 1,411 4.3 -19.6°
